Temp
67 72 79 79 79 79 79 79 78 78 78 78 78 78 78 77 78 78 78 78 78 77 77 77 77 77 77 76 76 76 75 75 75 74 73 72 73 74 76 76 75 72 76
70 73 78 79 79 79 79 78 77 77 77 78 78 78 78 78 78 78 78 78 78 77 77 76 76 76 76 76 76 76 76 75 74 74 72 71 71 73 75 77 75 72 75
72 74 77 78 79 79 78 78 77 77 77 77 78 78 78 79 78 78 78 78 77 76 76 75 75 75 75 75 75 75 76 75 74 73 72 66 65 72 75 76 74 75 76
73 74 75 78 78 78 78 78 77 77 77 77 78 79 79 78 80 79 78 77 77 76 75 74 74 74 74 74 75 75 75 74 74 73 67 67 68 75 75 76 75 76 76
73 74 76 78 78 78 78 77 77 77 77 77 77 77 76 77 78 78 78 79 76 75 74 74 74 74 74 74 74 75 75 75 73 71 65 64 63 73 76 77 76 76 76
71 72 75 77 78 78 77 77 77 77 77 77 77 76 76 76 76 77 77 77 75 75 74 74 74 74 74 74 74 75 75 74 73 64 63 64 66 72 77 76 75 75 75
71 73 75 77 77 77 77 77 77 77 77 76 76 76 76 76 76 77 77 76 75 75 74 74 74 75 74 74 74 74 74 73 67 62 61 62 63 73 76 77 77 76 76
72 74 75 76 76 76 77 76 77 77 77 77 76 76 76 75 76 76 76 75 75 75 75 75 74 74 74 74 74 74 73 71 68 63 62 62 66 73 75 76 77 76 76
73 72 72 74 74 75 75 75 76 76 76 76 76 76 75 74 74 75 75 75 75 74 74 74 74 74 74 74 73 73 72 70 65 63 65 63 68 73 75 76 76 77 77
71 72 71 71 72 71 72 74 74 75 74 74 74 72 71 71 71 73 73 73 74 74 73 73 73 74 73 73 73 72 70 69 65 64 63 64 70 74 75 76 76 77 77
70 69 70 70 70 71 70 72 73 73 72 72 71 70 69 65 65 67 69 70 72 73 73 73 73 73 72 70 70 70 69 64 63 63 64 68 71 74 75 76 77 77 77
67 68 69 69 69 69 74 69 68 70 68 67 67 66 65 64 64 68 67 69 71 72 72 73 73 72 70 65 64 66 68 68 62 65 65 69 72 75 76 76 76 76 76
71 70 70 69 69 69 70 67 66 66 66 66 66 65 65 65 64 64 63 64 64 65 64 66 65 64 65 65 63 63 64 63 61 63 66 69 72 75 76 76 76 75 76
67 71 71 71 69 67 68 67 65 65 65 64 65 66 63 62 63 63 63 66 66 64 67 68 68 69 66 64 62 62 62 61 61 62 62 67 70 74 75 77 77 76 76
67 70 70 69 69 68 67 65 65 64 65 65 65 66 65 64 63 64 63 64 65 67 68 64 60 60 60 60 61 60 60 59 60 61 60 64 68 70 73 74 75 76 77
67 69 69 69 68 67 66 65 65 65 69 65 65 66 66 65 63 67 67 65 64 59 59 58 57 56 56 56 58 58 58 57 57 58 59 60 66 68 71 73 74 74 75
65 67 68 68 68 67 66 65 65 71 70 69 69 70 68 68 68 65 63 58 57 57 57 56 56 55 54 56 54 56 56 55 56 56 58 59 59 63 67 70 71 71 72
64 66 66 72 67 66 65 66 66 69 68 67 67 67 67 65 60 60 57 55 55 55 55 54 53 52 51 50 50 52 53 53 54 56 57 57 57 59 62 66 67 68 69
63 64 64 66 66 65 63 68 67 66 65 64 61 62 61 60 59 57 55 54 54 53 52 52 51 49 48 49 52 52 51 50 52 57 53 55 55 56 57 62 63 63 65
62 62 62 66 63 64 66 66 65 63 57 57 57 58 58 57 57 54 53 53 53 51 50 49 49 49 48 47 53 53 49 49 50 53 52 56 53 54 53 55 53 57 62
59 59 61 63 63 64 64 63 62 55 54 54 55 56 56 55 55 53 51 51 51 49 47 49 47 47 46 46 44 46 46 48 49 54 50 52 51 55 53 56 55 55 55
58 59 60 62 62 62 62 57 57 56 53 52 52 53 54 54 54 54 50 49 48 48 47 46 45 44 44 44 42 40 39 43 48 52 49 51 51 51 52 55 52 52 53
56 57 60 60 60 61 60 59 55 55 52 51 50 50 52 53 52 51 50 48 47 46 44 44 43 43 41 43 44 43 37 35 43 44 48 46 51 45 51 48 53 52 51
55 57 59 60 60 60 60 58 57 53 50 50 50 49 49 51 50 50 49 48 46 45 44 44 47 43 42 40 42 47 42 40 36 35 41 47 43 49 45 46 48 48 51
55 55 56 58 58 56 55 54 52 51 50 49 48 47 48 48 49 49 48 46 45 44 43 43 42 42 41 40 39 39 39 39 38 35 35 38 45 47 48 46 43 48 48
52 53 54 55 53 54 54 53 52 50 48 47 46 45 45 45 46 47 48 45 44 44 43 42 42 41 40 40 39 39 38 37 38 37 37 37 38 42 43 46 43 46 45
MSLP
1011.04 1010.66 1010.69 1010.99 1011.19 1011.44 1011.66 1011.97 1012.23 1012.40 1012.61 1012.68 1012.75 1012.90 1013.12 1013.29 1013.44 1013.53 1013.58 1013.57 1013.66 1013.72 1013.87 1013.72 1013.61 1013.44 1013.41 1013.46 1013.58 1013.63 1013.71 1013.58 1013.60 1013.53 1013.70 1013.77 1013.74 1013.49 1013.43 1013.29 1013.44 1013.61 1013.38
1010.33 1010.65 1010.70 1010.98 1011.18 1011.44 1011.64 1011.91 1012.18 1012.42 1012.65 1012.81 1012.87 1012.87 1013.04 1013.22 1013.39 1013.54 1013.62 1013.66 1013.71 1013.74 1013.84 1013.82 1013.70 1013.65 1013.62 1013.65 1013.67 1013.67 1013.66 1013.45 1013.57 1013.63 1013.65 1013.79 1013.71 1013.63 1013.40 1013.31 1013.36 1013.46 1013.27
1010.34 1010.54 1010.71 1011.03 1011.25 1011.44 1011.71 1012.04 1012.23 1012.45 1012.58 1012.75 1012.98 1012.99 1013.04 1013.06 1013.29 1013.48 1013.56 1013.64 1013.83 1013.85 1013.89 1013.83 1013.87 1013.75 1013.80 1013.79 1013.75 1013.69 1013.57 1013.52 1013.59 1013.65 1013.55 1013.73 1013.76 1013.55 1013.33 1013.32 1013.39 1013.22 1013.11
1010.16 1010.51 1010.64 1010.99 1011.28 1011.50 1011.78 1012.07 1012.25 1012.43 1012.62 1012.78 1012.92 1012.91 1012.98 1013.06 1013.01 1013.17 1013.37 1013.63 1013.72 1013.82 1013.85 1013.90 1013.85 1013.90 1013.89 1013.89 1013.80 1013.76 1013.54 1013.64 1013.67 1013.59 1013.67 1013.63 1013.60 1013.24 1013.18 1013.16 1013.37 1013.18 1012.95
1010.26 1010.44 1010.64 1010.89 1011.22 1011.50 1011.71 1012.04 1012.24 1012.46 1012.65 1012.83 1012.97 1013.02 1013.07 1013.02 1013.03 1013.07 1013.08 1013.22 1013.55 1013.74 1013.81 1013.86 1013.85 1013.94 1013.90 1013.86 1013.78 1013.64 1013.59 1013.53 1013.62 1013.58 1013.67 1013.61 1013.55 1013.23 1012.95 1012.90 1013.11 1013.07 1012.87
1010.28 1010.41 1010.66 1010.91 1011.14 1011.41 1011.69 1011.97 1012.20 1012.36 1012.65 1012.83 1012.96 1013.08 1013.07 1013.01 1012.95 1013.04 1013.06 1013.10 1013.24 1013.59 1013.80 1013.82 1013.89 1013.82 1013.81 1013.80 1013.70 1013.62 1013.57 1013.45 1013.51 1013.66 1013.70 1013.62 1013.55 1013.26 1012.83 1012.78 1013.04 1013.02 1012.90
1010.29 1010.35 1010.56 1010.84 1011.02 1011.38 1011.70 1011.96 1012.17 1012.32 1012.55 1012.85 1012.96 1013.02 1012.95 1012.91 1012.86 1012.82 1012.98 1013.07 1013.40 1013.48 1013.67 1013.72 1013.73 1013.72 1013.65 1013.59 1013.50 1013.40 1013.41 1013.36 1013.46 1013.64 1013.67 1013.57 1013.51 1013.15 1012.75 1012.53 1012.56 1012.60 1012.58
1010.02 1010.34 1010.65 1010.75 1010.91 1011.22 1011.57 1011.87 1012.12 1012.22 1012.40 1012.62 1012.88 1012.97 1012.96 1012.93 1012.98 1012.97 1013.10 1013.28 1013.44 1013.52 1013.57 1013.59 1013.58 1013.59 1013.46 1013.40 1013.31 1013.19 1013.15 1013.15 1013.18 1013.29 1013.32 1013.28 1013.08 1012.77 1012.56 1012.28 1012.18 1012.22 1012.28
1009.90 1010.27 1010.56 1010.78 1010.90 1011.17 1011.47 1011.70 1011.99 1012.09 1012.27 1012.48 1012.84 1012.90 1012.95 1013.03 1013.11 1013.11 1013.19 1013.37 1013.45 1013.54 1013.52 1013.46 1013.47 1013.35 1013.21 1013.13 1013.05 1012.96 1012.92 1012.90 1012.90 1012.96 1012.92 1012.86 1012.61 1012.31 1012.06 1011.94 1011.78 1011.64 1011.70
1010.05 1010.15 1010.46 1010.70 1010.86 1011.10 1011.28 1011.55 1011.81 1012.10 1012.21 1012.39 1012.81 1012.85 1012.92 1013.12 1013.22 1013.28 1013.36 1013.48 1013.43 1013.47 1013.38 1013.27 1013.23 1013.09 1012.98 1012.89 1012.79 1012.72 1012.67 1012.56 1012.52 1012.52 1012.45 1012.33 1012.10 1011.83 1011.56 1011.41 1011.31 1011.27 1011.18
1010.16 1010.11 1010.25 1010.60 1010.76 1010.91 1011.22 1011.46 1011.66 1012.00 1012.11 1012.40 1012.68 1012.71 1012.87 1013.13 1013.16 1013.20 1013.30 1013.28 1013.16 1013.15 1012.99 1012.93 1012.88 1012.74 1012.72 1012.66 1012.55 1012.43 1012.38 1012.35 1012.26 1012.17 1012.06 1011.76 1011.61 1011.34 1011.13 1010.91 1010.81 1010.75 1010.66
1009.97 1010.05 1010.12 1010.20 1010.58 1010.67 1011.01 1011.35 1011.64 1011.89 1012.12 1012.40 1012.66 1012.66 1012.91 1012.96 1013.12 1013.07 1013.14 1013.26 1013.07 1012.99 1012.87 1012.81 1012.77 1012.61 1012.50 1012.43 1012.31 1012.22 1012.05 1011.83 1011.92 1011.80 1011.58 1011.33 1011.10 1010.81 1010.55 1010.34 1010.28 1010.19 1010.12
1008.89 1009.53 1009.81 1009.96 1010.15 1010.48 1010.86 1011.23 1011.55 1011.90 1012.18 1012.36 1012.60 1012.65 1012.86 1012.90 1013.06 1013.21 1013.24 1013.33 1013.16 1013.05 1013.03 1012.90 1012.76 1012.64 1012.52 1012.39 1012.30 1012.17 1011.92 1011.75 1011.67 1011.41 1011.14 1010.97 1010.67 1010.41 1010.12 1009.84 1009.72 1009.64 1009.56
1008.79 1008.87 1009.28 1009.68 1009.97 1010.30 1010.50 1010.99 1011.37 1011.89 1012.16 1012.33 1012.51 1012.56 1012.81 1012.97 1013.00 1013.21 1013.21 1013.13 1013.09 1013.02 1012.90 1012.86 1012.74 1012.64 1012.62 1012.54 1012.50 1012.32 1012.09 1011.85 1011.63 1011.44 1011.30 1010.92 1010.63 1010.34 1009.94 1009.52 1009.27 1008.99 1008.81
1008.30 1008.39 1008.73 1009.29 1009.77 1010.11 1010.55 1010.99 1011.44 1011.68 1011.83 1012.06 1012.37 1012.54 1012.61 1012.77 1013.12 1013.15 1013.31 1013.33 1013.26 1013.05 1013.03 1013.18 1013.24 1013.12 1013.01 1012.79 1012.57 1012.47 1012.35 1012.09 1011.73 1011.41 1011.17 1010.76 1010.44 1010.09 1009.88 1009.50 1009.09 1008.63 1008.23
1007.66 1008.00 1008.43 1009.04 1009.54 1010.07 1010.55 1011.06 1011.41 1011.46 1011.65 1012.07 1012.24 1012.40 1012.48 1012.73 1013.08 1013.46 1013.56 1013.71 1013.70 1013.63 1013.53 1013.52 1013.60 1013.58 1013.53 1013.27 1012.92 1012.61 1012.44 1012.17 1011.92 1011.55 1011.19 1010.91 1010.50 1010.34 1010.06 1009.63 1009.31 1008.86 1008.33
1007.48 1007.77 1008.35 1008.97 1009.39 1009.91 1010.58 1011.04 1011.26 1011.15 1011.58 1012.07 1012.24 1012.54 1012.71 1012.90 1013.31 1013.71 1013.92 1014.13 1014.24 1013.89 1013.73 1013.70 1013.67 1013.62 1013.66 1013.49 1013.26 1012.89 1012.48 1012.20 1011.97 1011.73 1011.40 1011.20 1010.96 1010.60 1010.31 1009.88 1009.60 1009.21 1008.99
1007.51 1007.91 1008.45 1008.88 1009.56 1010.07 1010.53 1011.01 1011.35 1011.53 1012.02 1012.59 1012.73 1013.03 1013.20 1013.56 1013.93 1014.04 1014.39 1014.64 1014.48 1014.27 1014.21 1014.23 1014.24 1014.21 1014.20 1014.05 1013.68 1013.12 1012.77 1012.60 1012.30 1011.99 1011.75 1011.51 1011.27 1011.02 1010.68 1010.32 1010.14 1009.71 1009.43
1007.75 1007.98 1008.63 1009.09 1009.59 1010.09 1010.74 1011.37 1011.73 1012.15 1012.60 1013.06 1013.23 1013.47 1013.87 1014.12 1014.21 1014.38 1014.83 1014.88 1014.75 1014.79 1014.79 1014.77 1014.70 1014.75 1014.81 1014.46 1013.87 1013.30 1012.82 1012.77 1012.61 1012.27 1012.19 1011.84 1011.56 1011.34 1011.00 1010.58 1010.32 1010.11 1009.83
1007.98 1008.27 1008.60 1009.19 1009.84 1010.17 1011.06 1011.83 1012.35 1012.80 1013.41 1013.55 1013.86 1013.99 1014.18 1014.50 1014.60 1014.86 1015.11 1015.19 1015.18 1015.28 1015.33 1015.23 1015.18 1015.00 1015.02 1014.86 1014.09 1013.46 1012.86 1012.80 1012.65 1012.49 1012.17 1011.87 1011.68 1011.49 1011.27 1010.95 1010.61 1010.16 1009.73
1008.32 1008.59 1008.98 1009.38 1010.09 1010.26 1011.20 1012.09 1012.84 1013.52 1013.96 1014.24 1014.37 1014.46 1014.60 1014.80 1015.05 1015.32 1015.58 1015.73 1015.74 1015.84 1015.93 1015.77 1015.57 1015.56 1015.28 1014.98 1014.55 1013.72 1013.02 1012.61 1012.54 1012.34 1012.23 1012.14 1011.94 1011.49 1011.23 1010.94 1010.76 1010.46 1010.17
1008.55 1008.84 1009.37 1009.73 1010.22 1010.61 1011.20 1012.16 1012.73 1013.55 1014.34 1014.66 1014.97 1015.03 1015.11 1015.26 1015.45 1015.66 1016.03 1016.25 1016.27 1016.22 1016.24 1016.16 1016.10 1016.02 1015.81 1015.46 1015.36 1014.73 1014.33 1013.49 1012.60 1012.85 1012.53 1012.34 1012.16 1011.89 1011.59 1011.15 1010.94 1010.50 1010.23
1008.92 1009.19 1009.58 1010.02 1010.47 1010.91 1011.56 1012.33 1013.27 1013.86 1014.59 1015.27 1015.51 1015.56 1015.78 1015.77 1015.88 1016.11 1016.31 1016.47 1016.63 1016.66 1016.73 1016.62 1016.42 1016.36 1016.31 1015.83 1015.51 1015.58 1015.47 1015.19 1014.03 1012.82 1012.65 1012.50 1012.24 1012.20 1011.94 1011.54 1010.99 1010.60 1010.31
1009.19 1009.43 1009.79 1010.15 1010.69 1011.30 1011.71 1012.49 1013.15 1013.81 1014.90 1015.49 1015.62 1015.94 1016.20 1016.18 1016.33 1016.41 1016.55 1016.68 1016.88 1016.99 1017.00 1016.88 1016.63 1016.47 1016.26 1016.30 1015.86 1015.74 1016.01 1015.92 1015.47 1013.68 1012.96 1012.62 1012.48 1012.19 1011.84 1011.39 1010.94 1010.63 1010.18
1009.25 1009.69 1010.16 1010.44 1010.97 1011.55 1011.97 1012.55 1013.41 1014.25 1014.84 1015.39 1015.91 1016.25 1016.47 1016.72 1016.65 1016.70 1016.81 1016.94 1017.14 1017.20 1017.13 1017.02 1016.79 1016.64 1016.51 1016.51 1016.46 1016.21 1015.93 1015.71 1015.53 1015.42 1013.50 1012.80 1012.37 1011.90 1011.50 1011.10 1010.80 1010.42 1010.00
1009.61 1010.05 1010.54 1010.85 1011.51 1011.86 1012.25 1012.86 1013.65 1014.35 1015.07 1015.72 1016.33 1016.64 1016.87 1016.93 1017.01 1017.04 1017.10 1017.18 1017.20 1017.26 1017.19 1017.09 1016.93 1016.70 1016.65 1016.57 1016.55 1016.44 1016.29 1016.09 1015.50 1015.01 1013.89 1012.98 1012.35 1011.75 1011.28 1010.97 1010.53 1010.16 1009.75
Wind_Speed
4 6 14 13 12 15 16 15 13 12 9 9 9 9 13 11 8 6 5 6 8 9 7 7 7 10 11 7 5 2 3 4 5 6 5 6 6 5 6 10 5 2 7
10 6 15 13 16 13 15 14 14 13 10 8 9 9 9 8 6 5 5 7 5 6 5 6 8 8 7 6 2 2 6 1 2 3 4 5 6 7 7 6 4 4 4
11 8 11 14 13 13 15 14 13 12 11 11 10 8 8 7 7 7 6 6 6 4 4 3 4 4 3 3 2 3 4 1 1 3 5 3 4 10 9 6 6 7 6
12 9 9 14 14 15 16 14 13 12 10 9 8 8 8 9 8 5 9 7 5 3 2 1 0 2 3 4 5 5 5 3 3 4 3 3 5 9 11 9 9 8 8
10 9 9 15 15 15 16 14 13 11 9 8 6 4 1 1 5 8 10 7 7 5 3 1 1 3 3 4 6 7 8 7 5 5 4 4 5 7 9 9 9 9 9
8 8 10 15 15 15 14 13 13 11 9 8 7 5 2 2 4 7 9 8 11 7 4 1 2 4 5 6 7 8 8 8 6 4 5 6 5 10 11 10 11 11 10
8 7 10 15 15 16 14 13 12 12 10 8 7 7 6 4 6 4 9 7 7 6 4 3 4 6 7 8 9 9 10 8 4 4 5 5 5 12 13 13 13 13 13
11 8 9 13 16 15 14 13 12 12 12 10 8 7 6 3 5 1 6 7 5 4 3 5 6 8 8 9 10 10 9 8 5 5 5 5 10 13 15 15 15 13 14
10 9 7 9 11 13 13 12 12 13 10 11 8 7 5 4 1 2 6 5 4 3 4 5 8 9 9 10 10 11 9 9 6 4 6 4 11 15 14 14 16 16 15
8 9 9 7 7 7 7 11 10 9 10 10 8 7 6 5 4 2 2 3 5 6 7 8 9 9 10 10 11 11 11 11 6 5 5 5 15 15 15 15 15 16 16
6 8 9 9 7 7 6 6 9 10 10 10 8 7 5 2 4 4 5 8 8 8 8 9 9 9 9 9 10 11 10 4 5 4 4 13 16 16 16 16 17 17 17
9 8 9 9 9 7 6 6 5 5 4 5 5 4 3 4 3 5 5 8 9 9 8 9 10 10 9 4 4 8 4 5 4 5 4 15 18 19 19 19 17 18 19
11 8 11 10 9 8 5 4 3 2 3 3 5 4 3 2 2 2 2 2 3 4 3 4 5 4 5 3 4 4 5 5 3 4 6 14 17 18 20 20 19 18 19
8 11 11 11 8 7 4 5 4 3 3 3 4 5 3 2 1 2 1 3 2 3 3 3 3 5 6 6 5 6 6 5 3 3 5 12 14 18 19 19 19 19 19
10 11 9 10 9 7 7 4 4 4 4 3 4 4 4 3 2 2 3 3 4 4 4 4 4 5 6 6 6 6 6 6 6 3 3 10 13 16 17 18 18 19 18
8 11 8 9 8 8 6 6 4 4 4 4 3 3 4 4 3 5 5 5 4 4 4 4 5 5 4 5 6 6 6 5 6 6 4 5 13 14 17 19 20 18 22
5 8 11 10 9 9 8 6 4 4 4 4 5 6 6 6 7 5 5 5 4 4 5 5 5 5 5 6 6 6 6 7 6 7 5 5 6 10 16 19 19 23 22
7 8 7 9 9 9 7 6 4 5 6 5 6 6 9 8 6 5 5 4 4 5 4 4 5 5 5 5 5 5 6 5 6 7 6 5 5 5 10 17 21 21 22
7 8 8 9 10 9 8 7 8 9 7 5 6 6 7 7 6 6 5 4 5 5 5 4 4 3 3 5 5 5 5 4 3 5 6 6 6 5 6 11 16 14 19
6 6 8 8 10 12 10 9 7 8 5 4 5 6 7 5 7 6 5 5 5 5 5 4 4 3 1 4 4 7 5 1 2 7 6 7 5 6 5 6 5 9 19
6 8 8 13 11 11 9 9 7 5 4 4 5 7 7 6 7 6 5 5 5 5 3 4 3 4 3 5 3 4 4 2 5 11 5 6 7 10 7 10 7 6 7
7 8 8 12 11 8 8 4 4 5 4 4 4 6 6 7 6 6 6 5 5 4 6 5 5 3 2 4 3 1 5 5 7 11 6 6 11 7 9 11 9 7 8
8 8 10 10 10 8 9 9 5 6 4 3 3 4 4 6 6 6 6 5 5 4 4 3 4 4 2 3 6 4 5 3 11 2 8 4 13 5 10 6 9 6 6
7 7 9 10 10 9 10 9 12 6 5 2 3 3 4 6 6 6 6 6 5 3 4 3 4 2 3 4 3 4 2 4 3 7 3 11 4 10 7 5 6 5 9
8 8 8 10 9 7 8 8 6 6 4 3 4 6 6 5 6 6 6 5 4 3 3 4 5 5 3 2 2 3 2 2 4 4 12 6 9 9 8 6 5 7 8
6 7 7 10 6 8 8 8 9 9 8 6 5 4 3 3 4 5 4 4 3 4 4 4 4 5 4 3 2 3 2 3 7 6 9 11 12 8 5 7 6 7 6
Wind_Direction
220 179 166 173 177 151 150 151 140 129 131 130 116 137 134 130 119 117 130 87 91 80 38 339 17 36 46 74 107 119 146 100 35 14 329 297 289 261 244 243 171 272 240
152 180 158 165 166 163 157 149 139 134 134 135 134 130 141 124 134 130 116 104 87 73 25 352 351 8 38 35 33 235 225 130 76 309 297 292 294 269 252 214 191 226 258
151 167 159 171 174 168 156 150 146 143 141 138 149 147 166 174 128 130 123 112 93 73 50 30 346 345 335 331 324 319 342 72 192 274 291 299 273 263 246 208 243 250 258
154 168 166 173 174 161 155 156 154 151 151 157 173 163 173 180 188 166 147 141 147 148 125 1 2 338 294 302 293 297 324 354 246 265 291 282 291 278 229 213 244 249 240
160 170 171 172 173 165 161 163 158 157 161 166 181 127 36 214 218 176 164 153 165 171 169 229 327 320 323 318 311 307 288 284 257 273 288 290 283 275 228 246 254 258 255
163 169 173 172 172 167 163 166 165 164 168 173 185 163 137 16 307 209 198 178 169 172 195 212 284 294 294 293 293 289 285 285 262 273 289 289 294 273 269 243 247 256 259
169 170 169 172 168 162 166 169 172 171 176 174 180 174 149 65 20 166 189 178 168 171 211 254 309 318 309 297 295 281 280 283 273 263 274 280 276 280 276 270 263 262 262
163 166 171 170 164 164 170 174 176 180 180 172 177 178 167 127 42 141 175 159 179 216 252 288 295 302 306 301 297 295 299 291 266 263 262 267 276 282 275 273 271 264 269
158 153 161 167 168 170 174 176 186 194 182 156 167 176 171 167 146 52 172 183 208 255 273 288 292 292 293 292 292 290 289 278 267 254 265 252 266 279 277 273 273 273 270
166 165 166 169 170 168 169 183 185 179 163 159 162 158 171 195 221 228 183 232 239 251 269 281 280 280 282 284 285 282 276 272 260 253 248 254 274 276 280 282 281 275 274
186 179 171 174 178 175 173 186 180 179 166 170 174 182 177 190 223 224 224 237 226 247 260 267 267 270 273 273 275 276 279 256 258 254 248 258 269 278 281 279 281 278 276
189 196 183 178 184 173 181 175 172 175 168 177 187 197 174 197 231 208 209 224 236 247 258 268 279 281 279 264 269 280 270 268 252 258 247 268 282 285 283 284 280 275 270
195 181 188 184 184 170 177 162 160 175 171 190 198 197 192 179 214 199 231 279 277 295 285 292 290 285 280 273 283 282 286 289 268 260 264 268 285 296 295 298 294 291 288
192 195 179 188 178 173 157 164 160 176 179 195 211 206 170 186 165 262 254 258 261 269 282 312 350 11 19 10 0 338 325 323 311 294 290 287 300 315 311 312 305 296 284
195 193 178 169 172 156 150 135 158 172 163 190 171 175 161 123 111 75 47 40 25 20 31 40 27 22 13 358 352 358 347 344 339 339 316 312 321 332 334 339 337 329 308
191 186 164 158 149 146 141 143 130 143 148 146 128 127 107 108 97 83 61 43 37 36 40 42 33 22 9 358 352 348 333 337 341 337 330 341 346 352 3 8 4 6 14
192 157 161 150 140 139 142 129 133 123 111 89 93 74 70 72 77 79 71 48 26 29 39 35 22 22 21 360 349 338 337 342 341 346 355 352 349 349 5 6 15 8 12
132 147 147 149 142 134 130 127 112 88 93 88 85 86 76 76 82 75 68 48 31 36 35 37 21 10 10 1 331 323 326 341 349 1 351 353 350 1 354 6 6 6 4
139 132 133 138 141 121 102 101 99 95 90 91 78 84 79 76 71 75 65 48 43 41 32 22 18 35 11 346 320 315 315 338 10 358 348 348 346 358 347 0 353 356 357
141 139 123 131 119 113 110 105 94 90 77 75 84 84 82 75 71 75 62 53 46 48 28 20 14 349 21 327 323 309 303 329 38 10 350 350 352 358 343 341 350 345 357
123 125 134 128 132 123 125 123 115 115 94 71 75 82 81 77 69 67 59 48 40 53 38 26 350 357 336 342 348 314 320 351 40 356 358 349 360 348 352 355 349 346 343
134 122 122 128 130 125 127 111 117 125 79 93 82 73 73 72 69 71 67 53 42 41 27 24 31 345 324 15 340 330 347 331 355 325 338 348 351 347 348 344 330 341 344
131 133 130 131 127 121 121 113 92 90 70 73 59 71 56 74 68 68 64 62 49 47 31 8 12 37 352 317 13 72 351 312 322 316 312 334 339 331 326 320 317 324 338
147 129 128 132 129 134 137 132 141 130 132 158 124 104 80 68 68 65 65 59 51 38 29 349 12 15 17 12 346 34 188 239 314 320 327 316 305 316 299 301 305 315 329
133 133 134 129 129 131 124 127 124 115 109 109 103 105 87 66 66 63 62 56 46 31 13 14 7 12 21 5 10 331 320 252 238 254 301 313 307 309 302 296 302 309 312
121 119 126 126 121 129 126 128 131 130 128 117 123 115 110 83 58 49 55 52 40 21 5 354 356 5 2 355 327 319 284 298 311 301 297 302 297 293 276 301 296 304 290